This demonstration page uses our WeatherBlox Daily Observations layout. Learn more.

Left ArrowRight Arrow

Hourly Observations for October 20, 2015

Temp ( °F °C ) Dew Point ( °F °C ) Humidity (%) Winds ( mph kmh ) Pressure ( in mb ) Visibility ( mi km ) Precip ( " mm )
12:15 am 00:15 Clear 63 17.3 51 10.7 65 65 SE 6 9 29.80 1009 10 16 N/A
12:35 am 00:35 Clear 62 16.4 51 10.5 68 68 ESE 5 7 29.80 1009 10 16 N/A
12:55 am 00:55 Clear 62 16.5 51 10.5 68 68 ESE 5 7 29.77 1008 10 16 N/A
1:15 am 01:15 Clear 61 15.9 51 10.3 70 70 ESE 5 7 29.77 1008 10 16 N/A
1:35 am 01:35 Clear 59 14.9 51 10.3 74 74 ESE 5 7 29.77 1008 10 16 N/A
1:55 am 01:55 Clear 56 13.5 50 10.1 80 80 E 5 7 29.80 1009 10 16 N/A
2:15 am 02:15 Clear 56 13.5 50 10.1 80 80 E 6 9 29.80 1009 10 16 N/A
2:35 am 02:35 Clear 56 13.1 50 10 82 82 E 5 7 29.80 1009 10 16 N/A
2:55 am 02:55 Clear 56 13.1 49 9.7 80 80 E 5 7 29.80 1009 10 16 N/A
3:15 am 03:15 Clear 54 12.4 49 9.6 83 83 Calm 29.80 1009 10 16 N/A
3:35 am 03:35 Clear 55 12.5 49 9.4 82 82 E 3 6 29.80 1009 10 16 N/A
3:55 am 03:55 Clear 55 12.5 49 9.5 82 82 E 5 7 29.80 1009 10 16 N/A
4:15 am 04:15 Clear 55 12.5 49 9.5 82 82 E 5 7 29.80 1009 10 16 N/A
4:35 am 04:35 Clear 52 10.9 48 8.9 88 88 E 3 6 29.83 1010 10 16 N/A
4:55 am 04:55 Clear 53 11.5 49 9.2 86 86 Calm 29.80 1009 10 16 N/A
5:15 am 05:15 Clear 50 10.1 47 8.4 89 89 WNW 5 7 29.85 1011 10 16 N/A
5:35 am 05:35 Clear 51 10.4 48 8.8 90 90 N 3 6 29.83 1010 10 16 N/A
5:55 am 05:55 Clear 50 10 47 8.5 91 91 N 5 7 29.85 1011 10 16 N/A
6:15 am 06:15 Clear 50 10 48 8.7 92 92 NW 5 7 29.85 1011 10 16 N/A
6:35 am 06:35 Clear 50 10.2 48 9 92 92 N 3 6 29.85 1011 10 16 N/A
6:55 am 06:55 Clear 49 9.6 47 8.2 91 91 W 5 7 29.85 1011 10 16 N/A
7:15 am 07:15 Clear 49 9.2 46 8 92 92 WSW 3 6 29.85 1011 10 16 N/A
7:35 am 07:35 Clear 48 8.9 46 7.7 92 92 Calm 29.85 1011 10 16 N/A
7:55 am 07:55 Clear 47 8.5 45 7.4 93 93 NW 5 7 29.85 1011 7 11 N/A
8:15 am 08:15 Sunny 47 8.5 46 7.6 94 94 NW 5 7 29.85 1011 7 11 N/A
8:35 am 08:35 Sunny with Mist and Fog 48 8.9 46 8 94 94 NW 5 7 29.85 1011 5 8 N/A
8:55 am 08:55 Sunny 50 10.1 48 9.1 94 94 NW 3 6 29.88 1012 7 11 N/A
9:15 am 09:15 Sunny 53 11.6 50 10 90 90 Calm 29.85 1011 10 16 N/A
9:35 am 09:35 Sunny 56 13.1 51 10.8 86 86 Calm 29.85 1011 10 16 N/A
9:55 am 09:55 Sunny 59 14.8 52 11.3 80 80 Calm 29.85 1011 7 11 N/A
10:15 am 10:15 Sunny 61 16.3 53 11.8 75 75 Calm 29.83 1010 10 16 N/A
10:35 am 10:35 Sunny 63 17.3 54 12.2 72 72 E 3 6 29.85 1011 10 16 N/A
10:55 am 10:55 Sunny 65 18.6 54 12.3 67 67 Calm 29.80 1009 10 16 N/A
11:15 am 11:15 Sunny 69 20.3 55 12.8 62 62 Calm 29.80 1009 7 11 N/A
11:35 am 11:35 Sunny 71 21.6 55 13 58 58 Calm 29.83 1010 10 16 N/A
11:55 am 11:55 Sunny 72 22.4 56 13.1 56 56 E 7 11 29.80 1009 10 16 N/A
12:15 pm 12:15 Sunny 74 23.1 56 13.1 53 53 NE 7 11 29.77 1008 10 16 N/A
12:35 pm 12:35 Sunny 75 24 56 13.2 51 51 ENE 7 11 29.77 1008 10 16 N/A
12:55 pm 12:55 Sunny 76 24.4 55 12.7 48 48 E 6 9 29.77 1008 10 16 N/A
1:15 pm 13:15 Sunny 77 25.2 54 12.3 45 45 ESE 5 7 29.77 1008 10 16 N/A
1:35 pm 13:35 Sunny 79 25.9 55 12.7 44 44 E 6 9 29.74 1007 7 11 N/A
1:55 pm 13:55 Sunny 79 26 55 12.5 43 43 SE 3 6 29.74 1007 10 16 N/A
2:15 pm 14:15 Sunny 79 26.1 54 12.2 42 42 E 3 6 29.71 1006 10 16 N/A
2:35 pm 14:35 Sunny 80 26.6 54 12.3 41 41 ESE 5 7 29.71 1006 10 16 N/A
2:55 pm 14:55 Sunny 80 26.4 55 12.8 43 43 SE 7 11 29.71 1006 10 16 N/A
3:15 pm 15:15 Sunny 80 26.7 54 12.3 41 41 ESE 7 11 29.71 1006 10 16 N/A
3:35 pm 15:35 Sunny 81 27 54 12.4 40 40 SE 6 9 29.68 1005 10 16 N/A
3:55 pm 15:55 Sunny 80 26.6 55 12.7 42 42 ESE 6 9 29.71 1006 10 16 N/A
4:15 pm 16:15 Sunny 78 25.3 57 13.8 49 49 ESE 5 7 29.74 1007 10 16 N/A
4:35 pm 16:35 Sunny 79 26.2 55 12.8 43 43 E 5 7 29.71 1006 10 16 N/A
4:55 pm 16:55 Sunny 78 25.3 56 13.2 47 47 ESE 6 9 29.74 1007 10 16 N/A
5:15 pm 17:15 Sunny 77 24.8 55 12.7 47 47 SE 5 7 29.74 1007 10 16 N/A
5:35 pm 17:35 Sunny 76 24.6 55 13 49 49 ESE 3 6 29.77 1008 10 16 N/A
5:55 pm 17:55 Sunny 75 23.8 57 14.1 55 55 E 5 7 29.77 1008 10 16 N/A
6:15 pm 18:15 Sunny 75 24.1 58 14.2 54 54 ENE 3 6 29.77 1008 10 16 N/A
6:35 pm 18:35 Sunny 75 24 54 12 47 47 NE 6 9 29.77 1008 10 16 N/A
6:55 pm 18:55 Hazy 71 21.4 54 12.2 56 56 ENE 7 11 29.80 1009 5 8 N/A
7:15 pm 19:15 Clear 70 21 54 12.2 57 57 ENE 6 9 29.80 1009 7 11 N/A
7:35 pm 19:35 Clear 67 19.4 53 11.9 62 62 ENE 7 11 29.80 1009 10 16 N/A
7:55 pm 19:55 Clear 66 19 53 11.7 63 63 NE 6 9 29.83 1010 10 16 N/A
8:15 pm 20:15 Clear 64 17.5 53 11.8 69 69 ENE 5 7 29.85 1011 10 16 N/A
8:35 pm 20:35 Clear 65 18.1 53 11.6 66 66 NE 3 6 29.85 1011 7 11 N/A
8:55 pm 20:55 Clear 63 17.3 53 11.6 69 69 NE 5 7 29.85 1011 10 16 N/A
9:15 pm 21:15 Clear 62 16.7 52 11.3 71 71 NNE 3 6 29.85 1011 10 16 N/A
9:35 pm 21:35 Clear 59 15 52 11.2 78 78 N 7 11 29.88 1012 10 16 N/A
9:55 pm 21:55 Clear 58 14.4 52 11.1 81 81 N 5 7 29.88 1012 10 16 N/A
10:15 pm 22:15 Clear 57 13.8 52 11 83 83 N 5 7 29.91 1013 10 16 N/A
10:35 pm 22:35 Clear 59 15.2 54 12 81 81 SSW 7 11 29.94 1014 10 16 N/A
10:55 pm 22:55 Clear 62 16.4 54 12 75 75 Calm 29.94 1014 10 16 N/A
11:15 pm 23:15 Clear 61 16.3 53 11.7 74 74 Calm 29.94 1014 10 16 N/A
11:35 pm 23:35 Clear 58 14.7 53 11.4 81 81 NNE 5 7 29.94 1014 10 16 N/A
11:55 pm 23:55 Clear 59 14.9 53 11.7 81 81 N 8 13 29.94 1014 10 16 N/A

Powered by AerisWeather